Find OneWeb SL0619

NORAD ID: 55160 Int'l Des: 2023-004 Owner: ONEWEBN Country: UK Constellation: oneweb operational
LEOCIRCULARPOLARONEWEB_TYPE

リアルタイム位置

3D地球を読み込み中...

OneWeb SL0619について

説明を読み込み中...

次回通過

Passes for default location (London). Set your location on the main map for personalized predictions.

高度履歴

Loading altitude history...

軌道要素

1 55160U 23004W 26127.16956089 -.00000050 00000-0 -16251-3 0 9993
2 55160 87.9210 13.9947 0002149 84.2213 275.9164 13.17650563162195
Epoch: May 7, 2026 • Age: 7 hours

現在のステータス

高度 1215.2 km
速度 7.25 km/s
衛星直下点 -51.80°S, 170.65°E
打ち上げ日 Jan 10, 2023
運用期間 3.3 years
タイプ internet

技術仕様

分類 Payload
質量 148.00 kg
乾燥質量 140.00 kg
総質量 148.00 kg
長さ 1.30 m
直径 1.00 m
スパン 5.00 m
形状 Trapezoid+2 pan
製造者 ONEWUS
バスタイプ ARROW
フェーズステータス In Orbit
所有者/国 ONEWEBN/UK

Most Searched